Change the Weather History Date:

Thursday, October 18, 2012

  Actual Average (KMVN) Record (KMVN)
Temperature  
Mean Temperature 56 °F -  
Max Temperature 64 °F 65 °F 84 °F (2007)
Min Temperature 48 °F 42 °F 30 °F (1997)
Degree Days  
Heating Degree Days 9    
Growing Degree Days 6 (Base 50)    
Moisture  
Dew Point 38 °F    
Average Humidity 58    
Maximum Humidity 94    
Minimum Humidity 19    
Precipitation  
Precipitation 0.00 in - - ()
Sea Level Pressure  
Sea Level Pressure 29.62 in    
Wind  
Wind Speed 8 mph (SW)    
Max Wind Speed 23 mph    
Max Gust Speed 34 mph    
Visibility 10 miles    
Events      
Averages and records for this station are not official NWS values.
T = Trace of Precipitation, MM = Missing Value Source: NWS Daily Summary

Daily Weather History Graph

Daily Weather History Graph

Search for Another Location

Airport or City:

Trip Planner

Search our weather history database for the weather conditions in past years. The results will help you decide how hot, cold, wet, or windy it might be!

Date:

Astronomy

Oct. 18, 2012 Rise Set
Actual Time 7:06 AM CDT 6:10 PM CDT
Civil Twilight 6:39 AM CDT 6:37 PM CDT
Nautical Twilight 6:08 AM CDT 7:08 PM CDT
Astronomical Twilight 5:37 AM CDT 7:38 PM CDT
Moon 10:44 AM CDT (10/18) 8:47 PM CDT (10/18)
Length of Visible Light 11h 58m
Length of Day
11h 04m
Waxing Crescent, 14% of the Moon is Illuminated
Oct 18
Waxing Crescent
Oct 21
First Quarter
Oct 29
Full
Nov 6
Last Quarter
Nov 13
New

Hourly Weather History & Observations

Time (CDT) Temp. Dew Point Humidity Pressure Visibility Wind Dir Wind Speed Gust Speed Precip Events Conditions
12:35 AM 55.4 °F 51.8 °F 88% 29.55 in 10.0 mi West 3.5 mph - N/A   Overcast
12:55 AM 55.4 °F 51.8 °F 88% 29.56 in 10.0 mi WSW 3.5 mph - N/A   Overcast
1:15 AM 55.4 °F 51.8 °F 88% 29.56 in 10.0 mi West 4.6 mph - N/A   Mostly Cloudy
1:35 AM 53.6 °F 51.8 °F 94% 29.57 in 10.0 mi Calm Calm - N/A   Scattered Clouds
1:55 AM 53.6 °F 50.0 °F 88% 29.57 in 10.0 mi West 4.6 mph - N/A   Clear
2:15 AM 53.6 °F 50.0 °F 88% 29.57 in 10.0 mi West 3.5 mph - N/A   Clear
2:35 AM 53.6 °F 50.0 °F 88% 29.57 in 10.0 mi WSW 5.8 mph - N/A   Clear
2:55 AM 51.8 °F 48.2 °F 88% 29.58 in 10.0 mi WSW 5.8 mph - N/A   Clear
3:15 AM 51.8 °F 48.2 °F 88% 29.59 in 10.0 mi WSW 8.1 mph - N/A   Clear
3:35 AM 51.8 °F 48.2 °F 88% 29.59 in 10.0 mi WSW 10.4 mph - N/A   Clear
3:55 AM 51.8 °F 48.2 °F 88% 29.59 in 10.0 mi WSW 8.1 mph 18.4 mph N/A   Clear
4:15 AM 51.8 °F 48.2 °F 88% 29.60 in 10.0 mi WSW 8.1 mph - N/A   Clear
4:35 AM 51.8 °F 48.2 °F 88% 29.61 in 10.0 mi WSW 8.1 mph - N/A   Clear
4:55 AM 51.8 °F 46.4 °F 82% 29.62 in 10.0 mi WSW 8.1 mph - N/A   Clear
5:15 AM 51.8 °F 46.4 °F 82% 29.62 in 10.0 mi WSW 8.1 mph - N/A   Clear
5:35 AM 50.0 °F 46.4 °F 87% 29.62 in 10.0 mi WSW 6.9 mph - N/A   Clear
5:55 AM 48.2 °F 44.6 °F 87% 29.62 in 10.0 mi SW 4.6 mph - N/A   Clear
6:15 AM 48.2 °F 44.6 °F 87% 29.62 in 10.0 mi SSW 4.6 mph - N/A   Clear
6:35 AM 48.2 °F 44.6 °F 87% 29.62 in 10.0 mi SSW 4.6 mph - N/A   Clear
6:55 AM 48.2 °F 44.6 °F 87% 29.63 in 10.0 mi SSW 5.8 mph - N/A   Clear
7:15 AM 48.2 °F 44.6 °F 87% 29.63 in 10.0 mi SSW 5.8 mph - N/A   Clear
7:35 AM 48.2 °F 44.6 °F 87% 29.63 in 10.0 mi SSW 5.8 mph - N/A   Clear
7:55 AM 48.2 °F 44.6 °F 87% 29.64 in 10.0 mi SSW 8.1 mph - N/A   Clear
8:15 AM 50.0 °F 46.4 °F 87% 29.64 in 10.0 mi SSW 8.1 mph - N/A   Clear
8:35 AM 51.8 °F 46.4 °F 82% 29.64 in 10.0 mi SW 8.1 mph - N/A   Clear
8:55 AM 53.6 °F 46.4 °F 77% 29.65 in 10.0 mi SW 8.1 mph - N/A   Clear
9:15 AM 53.6 °F 46.4 °F 77% 29.65 in 10.0 mi SW 11.5 mph 16.1 mph N/A   Clear
9:35 AM 55.4 °F 46.4 °F 72% 29.65 in 10.0 mi SW 11.5 mph 17.3 mph N/A   Clear
9:55 AM 55.4 °F 44.6 °F 67% 29.65 in 10.0 mi WSW 12.7 mph 18.4 mph N/A   Clear
10:15 AM 57.2 °F 42.8 °F 59% 29.65 in 10.0 mi WSW 15.0 mph - N/A   Clear
10:35 AM 57.2 °F 42.8 °F 59% 29.65 in 10.0 mi SW 16.1 mph 19.6 mph N/A   Clear
10:55 AM 57.2 °F 39.2 °F 51% 29.65 in 10.0 mi WSW 13.8 mph 24.2 mph N/A   Clear
11:15 AM 59.0 °F 37.4 °F 45% 29.65 in 10.0 mi SW 12.7 mph 20.7 mph N/A   Clear
11:35 AM 59.0 °F 35.6 °F 42% 29.65 in 10.0 mi SW 15.0 mph 21.9 mph N/A   Clear
11:55 AM 60.8 °F 33.8 °F 36% 29.64 in 10.0 mi SW 16.1 mph 21.9 mph N/A   Clear
12:15 PM 62.6 °F 33.8 °F 34% 29.64 in 10.0 mi WSW 15.0 mph 28.8 mph N/A   Clear
12:35 PM 62.6 °F 28.4 °F 27% 29.64 in 10.0 mi WSW 18.4 mph 29.9 mph N/A   Clear
12:55 PM 62.6 °F 28.4 °F 27% 29.63 in 10.0 mi SW 17.3 mph 26.5 mph N/A   Clear
1:35 PM 62.6 °F 24.8 °F 24% 29.62 in 10.0 mi WSW 18.4 mph 27.6 mph N/A   Clear
1:55 PM 62.6 °F 23.0 °F 22% 29.61 in 10.0 mi SW 18.4 mph 31.1 mph N/A   Clear
2:15 PM 62.6 °F 19.4 °F 19% 29.61 in 10.0 mi WSW 20.7 mph 34.5 mph N/A   Clear
2:35 PM 62.6 °F 21.2 °F 20% 29.60 in 10.0 mi WSW 23.0 mph 31.1 mph N/A   Clear
2:55 PM 62.6 °F 23.0 °F 22% 29.60 in 10.0 mi WSW 15.0 mph 21.9 mph N/A   Clear
3:15 PM 64.4 °F 24.8 °F 22% 29.61 in 10.0 mi WSW 13.8 mph 26.5 mph N/A   Clear
3:35 PM 62.6 °F 23.0 °F 22% 29.61 in 10.0 mi WSW 16.1 mph 27.6 mph N/A   Clear
3:55 PM 62.6 °F 23.0 °F 22% 29.61 in 10.0 mi WSW 17.3 mph 29.9 mph N/A   Clear
4:15 PM 62.6 °F 24.8 °F 24% 29.61 in 10.0 mi WSW 16.1 mph 26.5 mph N/A   Clear
4:35 PM 62.6 °F 24.8 °F 24% 29.61 in 10.0 mi SW 11.5 mph 25.3 mph N/A   Clear
4:55 PM 62.6 °F 26.6 °F 26% 29.61 in 10.0 mi SW 11.5 mph 21.9 mph N/A   Clear
5:15 PM 60.8 °F 24.8 °F 25% 29.62 in 10.0 mi SW 15.0 mph 20.7 mph N/A   Clear
5:35 PM 60.8 °F 28.4 °F 29% 29.62 in 10.0 mi SW 9.2 mph 18.4 mph N/A   Clear
5:55 PM 59.0 °F 28.4 °F 31% 29.63 in 10.0 mi SW 10.4 mph - N/A   Clear
6:15 PM 59.0 °F 28.4 °F 31% 29.63 in 10.0 mi SW 8.1 mph - N/A   Mostly Cloudy
6:35 PM 57.2 °F 30.2 °F 36% 29.64 in 10.0 mi SW 6.9 mph - N/A   Mostly Cloudy
6:55 PM 57.2 °F 30.2 °F 36% 29.64 in 10.0 mi SW 6.9 mph - N/A   Scattered Clouds
7:15 PM 57.2 °F 30.2 °F 36% 29.64 in 10.0 mi SSW 6.9 mph - N/A   Mostly Cloudy
7:35 PM 57.2 °F 32.0 °F 38% 29.64 in 10.0 mi SSW 6.9 mph - N/A   Overcast
7:55 PM 57.2 °F 33.8 °F 41% 29.64 in 10.0 mi SSW 6.9 mph - N/A   Overcast
8:15 PM 55.4 °F 35.6 °F 47% 29.64 in 10.0 mi SSW 5.8 mph - N/A   Overcast
8:35 PM 55.4 °F 35.6 °F 47% 29.64 in 10.0 mi Calm Calm - N/A   Mostly Cloudy
8:55 PM 55.4 °F 35.6 °F 47% 29.63 in 10.0 mi SSW 5.8 mph - N/A   Mostly Cloudy
9:15 PM 55.4 °F 35.6 °F 47% 29.62 in 10.0 mi SSW 4.6 mph - N/A   Overcast
9:35 PM 55.4 °F 35.6 °F 47% 29.62 in 10.0 mi SSW 6.9 mph - N/A   Scattered Clouds
9:55 PM 55.4 °F 37.4 °F 51% 29.61 in 10.0 mi South 6.9 mph - N/A   Clear
10:15 PM 53.6 °F 37.4 °F 54% 29.60 in 10.0 mi South 8.1 mph - N/A   Scattered Clouds
10:35 PM 53.6 °F 39.2 °F 58% 29.59 in 10.0 mi SSW 6.9 mph - N/A   Scattered Clouds
10:55 PM 53.6 °F 37.4 °F 54% 29.59 in 10.0 mi SSW 6.9 mph - N/A   Scattered Clouds